Los Coches (243) Station Data

Red Flag Warning: No
Fire Weather Zone: 250
SDGE Region: Eastern
Lat/Lon: 32.852/-116.895

Observations

Time Wind Speed/Gust Temp(F) RH Fuel Moist Fuel Temp(F) Dewpt(F) Tmax(F) Tmin(F) Accum Precip 10-min Precip SL Press(mb)
4/26 2:40am 136 3 G 5 54° 73% - - 46° 57.6° 53.6° - - 908.0
4/26 2:30am 264 1 G 2 54° 73% - - 46° 57.6° 53.6° - - 908.0
4/26 2:20am 162 1 G 2 55° 73% - - 46° 57.6° 53.6° - - 908.0
4/26 2:10am 143 2 G 3 54° 73% - - 46° 57.6° 53.6° - - 908.0
4/26 2:00am 186 2 G 4 54° 72% - - 45° 57.6° 53.7° - - 908.0
4/26 1:50am 278 3 G 4 55° 72% - - 46° 57.6° 54.4° - - 908.0
4/26 1:40am 26 3 G 5 56° 71% - - 46° 57.6° 54.9° - - 908.0
4/26 1:30am 70 3 G 5 56° 69% - - 46° 57.6° 54.9° - - 907.0
4/26 1:20am 71 2 G 4 56° 69% - - 46° 57.6° 54.9° - - 907.0
4/26 1:10am 145 2 G 3 55° 68% - - 45° 57.6° 54.9° - - 907.0
4/26 1:00am 73 2 G 3 56° 68% - - 46° 57.6° 55.1° - - 907.0
4/26 12:50am 57 2 G 3 57° 66% - - 46° 57.6° 55.1° - - 907.0
4/26 12:40am 144 3 G 5 56° 68% - - 45° 57.6° 55.1° - - 907.0
4/26 12:30am 145 3 G 5 56° 66% - - 45° 57.6° 55.7° - - 907.0
4/26 12:20am 57 3 G 4 57° 65% - - 45° 57.6° 56.9° - - 907.0
4/26 12:10am 67 3 G 5 57° 64% - - 45° 57.6° 57.2° - - 906.0
4/26 12:00am 86 2 G 3 57° 64% - - 45° 68.7° 57° - - 907.0
4/25 11:50pm 98 1 G 2 58° 63% - - 45° 68.7° 57° - - 906.0
4/25 11:40pm 331 1 G 1 58° 63% - - 45° 68.7° 57° - - 906.0
4/25 11:30pm 102 1 G 3 58° 63% - - 45° 68.7° 57° - - 906.0
4/25 11:20pm 77 2 G 3 58° 63% - - 45° 68.7° 57° - - 906.0
4/25 11:10pm 67 2 G 4 58° 63% - - 45° 68.7° 57° - - 907.0
4/25 11:00pm 58 3 G 5 58° 62% - - 45° 68.7° 57° - - 906.0
4/25 10:50pm 72 4 G 6 58° 61% - - 45° 68.7° 57° - - 906.0
4/25 10:40pm 119 4 G 5 59° 61% - - 45° 68.7° 57° - - 906.0
4/25 10:30pm 93 4 G 6 59° 60% - - 45° 68.7° 57° - - 906.0
4/25 10:20pm 119 2 G 4 59° 60% - - 45° 68.7° 57° - - 906.0
4/25 10:10pm 78 2 G 4 59° 59% - - 45° 68.7° 57° - - 906.0
4/25 10:00pm 104 4 G 5 59° 58% - - 45° 68.7° 57° - - 906.0
4/25 9:50pm 133 4 G 5 60° 57% - - 45° 68.7° 57° - - 906.0
4/25 9:40pm 142 3 G 4 60° 56% - - 45° 68.7° 57° - - 906.0
4/25 9:30pm 153 2 G 4 60° 57% - - 45° 68.7° 57° - - 906.0
4/25 9:20pm 157 3 G 3 60° 57% - - 45° 68.7° 57° - - 906.0
4/25 9:10pm 156 3 G 3 60° 57% - - 45° 68.7° 57° - - 906.0
4/25 9:00pm 150 3 G 5 60° 56% - - 45° 68.7° 57° - - 906.0
4/25 8:50pm 199 1 G 2 61° 56% - - 45° 68.7° 57° - - 906.0
4/25 8:40pm 229 2 G 3 61° 55% - - 45° 68.7° 57° - - 906.0
4/25 8:30pm 262 3 G 5 61° 54% - - 44° 68.7° 57° - - 906.0
4/25 8:20pm 252 3 G 5 61° 54% - - 45° 68.7° 57° - - 906.0
4/25 8:10pm 220 2 G 4 61° 55% - - 45° 68.7° 57° - - 906.0
4/25 8:00pm 214 2 G 3 61° 55% - - 45° 68.7° 57° - - 906.0
4/25 7:50pm 228 2 G 5 61° 55% - - 45° 68.7° 57° - - 906.0
4/25 7:40pm 225 2 G 5 61° 54% - - 45° 68.7° 57° - - 906.0
4/25 7:30pm 252 4 G 7 62° 54% - - 45° 68.7° 57° - - 906.0
4/25 7:20pm 248 4 G 7 62° 53% - - 45° 68.7° 57° - - 906.0
4/25 7:10pm 265 5 G 8 62° 52% - - 45° 68.7° 57° - - 906.0
4/25 7:00pm 257 6 G 10 62° 53% - - 45° 68.7° 57° - - 906.0
4/25 6:50pm 256 6 G 10 63° 52% - - 45° 68.7° 57° - - 906.0
4/25 6:40pm 247 5 G 11 63° 51% - - 45° 68.7° 57° - - 906.0
4/25 6:30pm 251 7 G 11 63° 51% - - 45° 68.7° 57° - - 906.0
4/25 6:20pm 251 6 G 11 64° 51% - - 45° 68.7° 57° - - 906.0
4/25 6:10pm 247 6 G 10 64° 51% - - 45° 68.7° 57° - - 906.0
4/25 6:00pm 273 7 G 11 64° 50% - - 45° 68.7° 57° - - 906.0
4/25 5:50pm 260 7 G 11 65° 49% - - 45° 68.7° 57° - - 906.0
4/25 5:40pm 259 7 G 12 66° 48% - - 46° 68.7° 57° - - 905.0
4/25 5:30pm 255 7 G 14 66° 49% - - 46° 68.7° 57° - - 905.0
4/25 5:20pm 268 7 G 14 66° 51% - - 47° 68.7° 57° - - 906.0
4/25 5:10pm 246 7 G 12 65° 53% - - 48° 68.7° 57° - - 906.0
4/25 5:00pm 256 8 G 13 65° 53% - - 48° 68.7° 57° - - 907.0
4/25 4:50pm 271 7 G 14 66° 53% - - 49° 68.7° 57° - - 907.0
4/25 4:40pm 248 7 G 13 66° 53% - - 48° 68.7° 57° - - 906.0
4/25 4:30pm 257 7 G 11 66° 53% - - 49° 68.7° 57° - - 906.0
4/25 4:20pm 268 6 G 11 66° 54% - - 49° 68.7° 57° - - 907.0
4/25 4:10pm 252 6 G 11 66° 54% - - 49° 68.7° 57° - - 907.0
4/25 4:00pm 269 7 G 14 66° 53% - - 49° 68.7° 57° - - 907.0
4/25 3:50pm 264 7 G 14 66° 51% - - 48° 68.7° 57° - - 906.0
4/25 3:40pm 263 8 G 15 67° 50% - - 48° 68.7° 57° - - 906.0
4/25 3:30pm 287 9 G 15 66° 50% - - 47° 68.7° 57° - - 906.0
4/25 3:20pm 279 7 G 14 67° 49% - - 47° 68.7° 57° - - 906.0
4/25 3:10pm 262 6 G 11 67° 50% - - 47° 68.7° 57° - - 906.0
4/25 3:00pm 233 7 G 17 67° 50% - - 48° 68.7° 57° - - 906.0
4/25 2:50pm 239 7 G 15 67° 50% - - 48° 68.7° 57° - - 906.0
4/25 2:40pm 252 6 G 13 67° 52% - - 48° 68.7° 57° - - 906.0
4/25 2:30pm 270 8 G 13 67° 51% - - 49° 68.7° 57° - - 906.0
4/25 2:20pm 273 8 G 14 67° 52% - - 49° 68.7° 57° - - 906.0
4/25 2:10pm 284 7 G 15 67° 51% - - 49° 68.7° 57° - - 906.0
4/25 2:00pm 246 7 G 15 68° 49% - - 48° 68.7° 57° - - 906.0
4/25 1:50pm 278 6 G 12 68° 49% - - 48° 68.7° 57° - - 905.0
4/25 1:40pm 240 6 G 16 67° 51% - - 48° 68.7° 57° - - 906.0
4/25 1:30pm 220 5 G 9 67° 50% - - 48° 68.7° 57° - - 906.0
4/25 1:20pm 224 7 G 13 68° 50% - - 48° 68.7° 57° - - 905.0
4/25 1:10pm 246 7 G 13 67° 50% - - 48° 68.7° 57° - - 906.0
4/25 1:00pm 255 7 G 14 68° 49% - - 48° 68.7° 57° - - 905.0
4/25 12:50pm 257 6 G 13 68° 49% - - 48° 68.6° 57° - - 905.0
4/25 12:40pm 286 7 G 14 67° 49% - - 48° 68.6° 57° - - 905.0
4/25 12:30pm 262 6 G 12 67° 50% - - 48° 68.3° 57° - - 905.0
4/25 12:20pm 235 7 G 14 66° 52% - - 48° 68.3° 57° - - 906.0
4/25 12:10pm 254 6 G 13 68° 48% - - 47° 68.3° 57° - - 904.0
4/25 12:00pm 255 7 G 13 67° 52% - - 48° 68.3° 57° - - 905.0
4/25 11:50am 259 5 G 12 67° 49% - - 48° 68.3° 57° - - 904.0
4/25 11:40am 248 4 G 12 67° 50% - - 48° 68.3° 57° - - 904.0
4/25 11:30am 289 5 G 10 66° 51% - - 47° 67.3° 57° - - 904.0
4/25 11:20am 272 4 G 10 66° 52% - - 48° 67.3° 57° - - 904.0
4/25 11:10am 270 3 G 9 65° 55% - - 48° 65.4° 57° - - 905.0
4/25 11:00am 234 5 G 9 64° 56% - - 48° 65.1° 57° - - 905.0
4/25 10:50am 237 3 G 9 64° 55% - - 48° 65.1° 57° - - 905.0
4/25 10:40am 225 4 G 10 64° 56% - - 49° 65.1° 57° - - 905.0
4/25 10:30am 213 4 G 9 63° 59% - - 49° 64.4° 57° - - 906.0
4/25 10:20am 217 3 G 7 64° 59% - - 49° 64.4° 57° - - 905.0
4/25 10:10am 241 2 G 6 64° 57% - - 49° 64.4° 57° - - 904.0
4/25 10:00am 234 3 G 8 62° 61% - - 49° 63.4° 57° - - 905.0
4/25 9:50am 217 4 G 8 62° 62% - - 49° 62.9° 57° - - 905.0
4/25 9:40am 193 4 G 8 61° 66% - - 50° 62.3° 57° - - 906.0
4/25 9:30am 212 5 G 9 61° 68% - - 50° 61.9° 57° - - 907.0
4/25 9:20am 221 4 G 7 61° 66% - - 50° 61.9° 57° - - 906.0
4/25 9:10am 221 5 G 11 61° 67% - - 50° 61.9° 57° - - 906.0
4/25 9:00am 214 3 G 6 61° 69% - - 51° 61.9° 57° - - 907.0
4/25 8:50am 203 3 G 8 60° 70% - - 50° 60.6° 57° - - 907.0
4/25 8:40am 203 4 G 8 60° 70% - - 50° 59.9° 57° - - 907.0
4/25 8:30am 200 3 G 8 60° 71% - - 50° 59.9° 57° - - 907.0
4/25 8:20am 197 3 G 8 59° 72% - - 50° 59.4° 57° - - 907.0
4/25 8:10am 210 2 G 5 59° 73% - - 50° 59.2° 57° - - 908.0
4/25 8:00am 214 2 G 4 59° 74% - - 51° 59.1° 57° - - 908.0
4/25 7:50am 198 2 G 6 58° 75% - - 51° 58.7° 57° - - 908.0
4/25 7:40am 210 2 G 5 58° 76% - - 51° 58.4° 57° - - 908.0
4/25 7:30am 247 1 G 2 58° 77% - - 51° 58.2° 57° - - 909.0
4/25 7:20am 213 1 G 3 58° 78% - - 51° 58.1° 57° - - 909.0
4/25 7:10am 220 2 G 4 57° 78% - - 51° 58.1° 57° - - 909.0
4/25 7:00am 168 4 G 7 57° 78% - - 50° 58.1° 57° - - 909.0
4/25 6:50am 189 2 G 6 57° 78% - - 50° 58.1° 57° - - 909.0
4/25 6:40am 202 2 G 5 57° 77% - - 50° 58.1° 57° - - 909.0
4/25 6:30am 189 2 G 5 57° 77% - - 50° 58.1° 57° - - 909.0
4/25 6:20am 184 2 G 6 57° 77% - - 50° 58.1° 57° - - 909.0
4/25 6:10am 179 3 G 6 57° 77% - - 50° 58.1° 57° - - 909.0
4/25 6:00am 178 5 G 8 57° 77% - - 50° 58.1° 57° - - 909.0
4/25 5:50am 179 5 G 9 57° 76% - - 50° 58.1° 57° - - 909.0
4/25 5:40am 180 4 G 9 57° 77% - - 50° 58.1° 57° - - 909.0
4/25 5:30am 180 4 G 7 57° 77% - - 50° 58.1° 57° - - 909.0
4/25 5:20am 188 3 G 6 57° 77% - - 50° 58.1° 57° - - 909.0
4/25 5:10am 175 5 G 10 57° 77% - - 50° 58.1° 57° - - 909.0
4/25 5:00am 176 5 G 9 57° 76% - - 50° 58.1° 57° - - 909.0
4/25 4:50am 181 4 G 9 57° 76% - - 50° 58.1° 57° - - 909.0
4/25 4:40am 178 5 G 9 58° 74% - - 50° 58.1° 57° - - 908.0
4/25 4:30am 178 4 G 8 58° 73% - - 49° 58.1° 57° - - 908.0
4/25 4:20am 171 5 G 11 58° 73% - - 49° 58.1° 57° - - 908.0
4/25 4:10am 172 5 G 9 58° 73% - - 49° 58.1° 57° - - 908.0
4/25 4:00am 176 4 G 7 58° 73% - - 49° 58.1° 57° - - 908.0
4/25 3:50am 174 5 G 10 58° 73% - - 49° 58.1° 57° - - 908.0
4/25 3:40am 171 7 G 12 58° 73% - - 49° 58.1° 57° - - 908.0
4/25 3:30am 169 6 G 11 58° 74% - - 49° 58.1° 57° - - 908.0
4/25 3:20am 173 5 G 8 57° 75% - - 50° 58.1° 57° - - 909.0
4/25 3:10am 168 7 G 11 57° 76% - - 50° 58.1° 57° - - 909.0
4/25 3:00am 172 6 G 11 57° 76% - - 50° 58.1° 57° - - 909.0
4/25 2:50am 170 8 G 11 57° 76% - - 50° 58.1° 57° - - 909.0
4/25 2:40am 181 6 G 12 57° 76% - - 50° 58.1° 57° - - 909.0
4/25 2:30am 201 5 G 10 57° 75% - - 50° 58.1° 57.1° - - 909.0
4/25 2:20am 193 5 G 11 57° 75% - - 50° 58.1° 57.1° - - 909.0
4/25 2:10am 194 5 G 11 58° 75% - - 50° 58.1° 57.3° - - 909.0
4/25 2:00am 199 4 G 10 58° 75% - - 50° 58.1° 57.3° - - 909.0
4/25 1:50am 189 4 G 10 58° 75% - - 50° 58.1° 57.3° - - 909.0
4/25 1:40am 178 5 G 10 58° 75% - - 50° 58.1° 57.3° - - 909.0
4/25 1:30am 186 4 G 9 58° 74% - - 50° 58.1° 57.3° - - 909.0
4/25 1:20am 190 4 G 7 58° 73% - - 49° 58.1° 57.3° - - 909.0
4/25 1:10am 177 4 G 7 58° 73% - - 49° 58° 57.3° - - 909.0
4/25 1:00am 176 5 G 8 58° 74% - - 49° 57.9° 57.3° - - 909.0
4/25 12:50am 174 5 G 9 58° 74% - - 49° 57.9° 57.3° - - 909.0
4/25 12:40am 171 5 G 8 58° 74% - - 49° 57.9° 57.3° - - 909.0
4/25 12:30am 173 6 G 10 58° 74% - - 49° 57.9° 57.3° - - 909.0
4/25 12:20am 174 6 G 12 58° 74% - - 49° 57.9° 57.3° - - 909.0
4/25 12:10am 176 7 G 13 57° 75% - - 50° 57.6° 57.3° - - 909.0
4/25 12:00am 175 8 G 15 57° 77% - - 50° 69.1° 56.1° - - 910.0
4/24 11:50pm 187 6 G 13 58° 76% - - 50° 69.1° 56.1° - - 910.0
4/24 11:40pm 204 4 G 10 58° 76% - - 50° 69.1° 56.1° - - 910.0
4/24 11:30pm 183 5 G 10 58° 76% - - 51° 69.1° 56.1° - - 910.0
4/24 11:20pm 199 4 G 9 58° 74% - - 50° 69.1° 56.1° - - 910.0
4/24 11:10pm 180 4 G 8 58° 74% - - 50° 69.1° 56.1° - - 909.0
4/24 11:00pm 180 4 G 8 58° 74% - - 50° 69.1° 56.1° - - 909.0
4/24 10:50pm 177 5 G 8 58° 75% - - 50° 69.1° 56.1° - - 910.0
4/24 10:40pm 174 6 G 11 58° 75% - - 50° 69.1° 56.1° - - 910.0
4/24 10:30pm 174 6 G 10 58° 75% - - 50° 69.1° 56.1° - - 910.0
4/24 10:20pm 173 7 G 11 58° 75% - - 50° 69.1° 56.1° - - 910.0
4/24 10:10pm 174 7 G 13 58° 74% - - 50° 69.1° 56.1° - - 910.0
4/24 10:00pm 181 6 G 10 58° 74% - - 50° 69.1° 56.1° - - 910.0
4/24 9:50pm 180 5 G 12 58° 74% - - 50° 69.1° 56.1° - - 910.0
4/24 9:40pm 190 4 G 8 58° 75% - - 50° 69.1° 56.1° - - 910.0
4/24 9:30pm 184 4 G 11 58° 74% - - 50° 69.1° 56.1° - - 910.0
4/24 9:20pm 190 4 G 9 58° 74% - - 50° 69.1° 56.1° - - 910.0
4/24 9:10pm 191 3 G 10 59° 74% - - 50° 69.1° 56.1° - - 910.0
4/24 9:00pm 205 4 G 7 59° 73% - - 50° 69.1° 56.1° - - 910.0
4/24 8:50pm 210 4 G 8 59° 73% - - 50° 69.1° 56.1° - - 910.0
4/24 8:40pm 203 3 G 7 59° 73% - - 51° 69.1° 56.1° - - 910.0
4/24 8:30pm 211 4 G 9 60° 72% - - 51° 69.1° 56.1° - - 910.0
4/24 8:20pm 196 4 G 9 60° 72% - - 51° 69.1° 56.1° - - 910.0
4/24 8:10pm 202 5 G 11 60° 72% - - 51° 69.1° 56.1° - - 910.0
4/24 8:00pm 201 4 G 9 60° 72% - - 51° 69.1° 56.1° - - 911.0
4/24 7:50pm 199 4 G 9 60° 72% - - 51° 69.1° 56.1° - - 911.0
4/24 7:40pm 204 4 G 9 61° 70% - - 51° 69.1° 56.1° - - 910.0
4/24 7:30pm 204 4 G 9 61° 70% - - 51° 69.1° 56.1° - - 910.0
4/24 7:20pm 214 5 G 9 61° 70% - - 51° 69.1° 56.1° - - 910.0
4/24 7:10pm 210 4 G 8 61° 70% - - 51° 69.1° 56.1° - - 910.0
4/24 7:00pm 216 5 G 9 62° 69% - - 52° 69.1° 56.1° - - 910.0
4/24 6:50pm 204 4 G 9 62° 70% - - 52° 69.1° 56.1° - - 911.0
4/24 6:40pm 196 4 G 10 62° 70% - - 52° 69.1° 56.1° - - 911.0
4/24 6:30pm 188 6 G 10 62° 69% - - 52° 69.1° 56.1° - - 911.0
4/24 6:20pm 187 6 G 12 62° 69% - - 52° 69.1° 56.1° - - 911.0
4/24 6:10pm 177 6 G 14 63° 67% - - 52° 69.1° 56.1° - - 911.0
4/24 6:00pm 186 4 G 11 64° 66% - - 52° 69.1° 56.1° - - 911.0